Home   Weather   Porto Acre   Past weeks
Flag for Brazil

Past Weather in Porto Acre, Acre, Brazil — Yesterday and Last 2 Weeks

Now
79 °F

Broken clouds.


Feels Like: 83 °F
Forecast: 86 / 73 °F
Wind: 3 mph from East

Location: Rio Branco Airport

Current Time: Oct 22, 2019 at 9:45:26 am

Latest Report: Oct 22, 2019 at 9:00 am


Visibility: N/A

Pressure: 29.95 "Hg

Humidity: 94%

Dew Point: 77 °F

Location of Porto AcreLocation

Past Weather in Porto Acre — Graph

°F

Porto Acre Temperature Yesterday

Maximum temperature yesterday: 86 °F (at 3:00 pm)
Minimum temperature yesterday: 72 °F (at 12:00 am)
Average temperature yesterday: 77 °F

High & Low Weather Summary for the Past Weeks

 TemperatureHumidityPressure
High95 °F (Oct 9, 1:00 pm)100% (Oct 7, 10:00 pm)30.01 "Hg (Oct 7, 10:00 pm)
Low66 °F (Oct 8, 3:00 am)41% (Oct 9, 1:00 pm)29.74 "Hg (Oct 9, 4:00 pm)
Average77 °F88%29.89 "Hg
* Reported Oct 7 8:00 am — Oct 22 8:00 am, Porto Acre. Weather by CustomWeather, © 2019

Note: Actual official high and low records may vary slightly from our data, if they occured in-between our weather recording intervals... More about our weather records

Advertising

Porto Acre Weather History for the Previous 24 Hours

Scroll right to see more
 ConditionsComfort  
Time TempWeatherWind HumidityBarometerVisibility
8:00 am
Tue, Oct 22
79 °FBroken clouds.3 mph100%29.95 "HgN/A
7:00 am75 °FPartly sunny.1 mph100%29.95 "HgN/A
6:00 am73 °FPartly sunny.3 mph100%29.92 "HgN/A
5:00 am73 °FPassing clouds.2 mph100%29.89 "HgN/A
3:00 am73 °FClear.No wind94%29.86 "Hg10 mi
2:00 am73 °FClear.2 mph100%29.83 "Hg10 mi
1:00 am72 °FClear.2 mph100%29.83 "Hg10 mi
12:00 am73 °FClear.1 mph94%29.86 "Hg10 mi
11:00 pm
Mon, Oct 21
73 °FClear.2 mph100%29.89 "Hg10 mi
10:00 pm73 °FClear.No wind100%29.89 "Hg10 mi
9:00 pm73 °FClear.2 mph94%29.89 "Hg10 mi
8:00 pm75 °FClear.2 mph94%29.86 "Hg10 mi
7:00 pm75 °FPassing clouds.3 mph100%29.86 "HgN/A
6:00 pm77 °FPassing clouds.2 mph94%29.83 "HgN/A
5:00 pm79 °FScattered clouds.5 mph89%29.80 "HgN/A
4:00 pm82 °FBroken clouds.7 mph74%29.80 "HgN/A
3:00 pm86 °FBroken clouds.7 mph70%29.80 "HgN/A
2:00 pm84 °FScattered clouds.5 mph74%29.83 "HgN/A
1:00 pm84 °FSunny.5 mph74%29.86 "Hg10 mi
12:00 pm82 °FScattered clouds.5 mph79%29.89 "HgN/A
11:00 am81 °FPartly sunny.8 mph84%29.95 "HgN/A
10:32 am81 °FBroken clouds.8 mph84%29.95 "HgN/A
10:00 am79 °FPartly sunny.8 mph94%29.98 "HgN/A
9:00 am75 °FBroken clouds.3 mph100%29.98 "HgN/A
Weather by CustomWeather, © 2019

See weather overview